Total_Precipitation_Accumulation
0.02 0.01 0.00 0.00 0.00 0.00 0.00 0.00 0.00 0.00 0.00 0.00 0.00 0.00 0.00 0.00 0.00 0.00 0.00 0.00 0.00 0.00 0.00 0.00 0.00 0.01 0.01 0.01 0.01 0.01 0.01 0.01 0.01 0.01 0.01 0.00 0.00 0.00 0.00 0.00 0.00 0.00 0.00
0.02 0.01 0.01 0.01 0.00 0.00 0.00 0.00 0.00 0.00 0.00 0.00 0.00 0.00 0.00 0.00 0.00 0.00 0.00 0.00 0.01 0.00 0.01 0.01 0.01 0.01 0.01 0.02 0.02 0.02 0.02 0.02 0.02 0.02 0.02 0.01 0.01 0.01 0.01 0.00 0.00 0.00 0.00
0.02 0.01 0.01 0.01 0.01 0.00 0.00 0.00 0.00 0.00 0.00 0.00 0.00 0.00 0.00 0.00 0.00 0.01 0.01 0.02 0.02 0.02 0.02 0.02 0.01 0.01 0.01 0.02 0.02 0.02 0.02 0.03 0.03 0.03 0.03 0.03 0.02 0.02 0.01 0.01 0.01 0.01 0.01
0.00 0.00 0.01 0.01 0.00 0.00 0.00 0.00 0.00 0.00 0.01 0.01 0.01 0.01 0.01 0.02 0.02 0.03 0.02 0.02 0.02 0.02 0.03 0.03 0.02 0.02 0.02 0.02 0.02 0.03 0.03 0.03 0.04 0.05 0.06 0.06 0.05 0.05 0.04 0.03 0.03 0.02 0.02
0.00 0.00 0.01 0.01 0.00 0.00 0.01 0.02 0.04 0.05 0.05 0.04 0.03 0.03 0.04 0.05 0.06 0.05 0.04 0.03 0.03 0.03 0.02 0.03 0.02 0.04 0.04 0.03 0.03 0.03 0.04 0.05 0.08 0.09 0.08 0.07 0.07 0.07 0.07 0.06 0.05 0.05 0.04
0.02 0.02 0.02 0.02 0.02 0.04 0.06 0.09 0.10 0.08 0.06 0.05 0.03 0.02 0.03 0.04 0.04 0.04 0.04 0.03 0.03 0.02 0.02 0.01 0.01 0.02 0.04 0.06 0.07 0.07 0.06 0.09 0.14 0.14 0.10 0.09 0.09 0.10 0.10 0.10 0.09 0.08 0.07
0.04 0.05 0.08 0.09 0.08 0.08 0.07 0.07 0.06 0.04 0.03 0.02 0.02 0.02 0.01 0.01 0.01 0.01 0.01 0.01 0.01 0.01 0.00 0.01 0.01 0.01 0.03 0.08 0.12 0.11 0.08 0.10 0.17 0.19 0.15 0.14 0.15 0.16 0.16 0.15 0.13 0.12 0.11
0.04 0.05 0.05 0.05 0.04 0.04 0.04 0.03 0.02 0.02 0.02 0.02 0.02 0.02 0.01 0.00 0.00 0.00 0.00 0.00 0.00 0.00 0.00 0.00 0.00 0.00 0.01 0.04 0.06 0.07 0.08 0.06 0.07 0.12 0.18 0.22 0.25 0.26 0.25 0.23 0.20 0.18 0.16
0.06 0.07 0.04 0.02 0.01 0.01 0.01 0.01 0.00 0.01 0.01 0.01 0.01 0.02 0.02 0.01 0.00 0.00 0.00 0.00 0.00 0.00 0.00 0.00 0.00 0.01 0.01 0.01 0.01 0.01 0.03 0.04 0.03 0.04 0.10 0.19 0.22 0.21 0.22 0.24 0.25 0.25 0.22
0.03 0.02 0.01 0.00 0.00 0.00 0.00 0.00 0.00 0.00 0.01 0.01 0.01 0.01 0.02 0.03 0.03 0.02 0.00 0.00 0.00 0.00 0.00 0.00 0.00 0.00 0.00 0.00 0.01 0.01 0.03 0.04 0.06 0.06 0.07 0.13 0.17 0.17 0.17 0.20 0.23 0.27 0.28
0.00 0.00 0.00 0.00 0.00 0.00 0.00 0.00 0.00 0.01 0.01 0.01 0.01 0.01 0.01 0.01 0.02 0.03 0.02 0.01 0.00 0.00 0.00 0.00 0.01 0.02 0.02 0.02 0.03 0.04 0.05 0.06 0.08 0.10 0.11 0.11 0.13 0.14 0.16 0.18 0.20 0.22 0.26
0.00 0.00 0.00 0.00 0.00 0.00 0.00 0.00 0.00 0.01 0.01 0.01 0.01 0.01 0.02 0.02 0.02 0.02 0.02 0.01 0.01 0.00 0.00 0.00 0.00 0.01 0.01 0.02 0.06 0.10 0.11 0.11 0.11 0.11 0.11 0.11 0.11 0.11 0.13 0.15 0.17 0.20 0.23
0.00 0.00 0.00 0.00 0.00 0.00 0.00 0.00 0.00 0.00 0.00 0.01 0.01 0.01 0.01 0.01 0.01 0.01 0.02 0.02 0.02 0.01 0.00 0.00 0.00 0.00 0.00 0.01 0.04 0.09 0.13 0.13 0.13 0.12 0.10 0.07 0.06 0.06 0.08 0.09 0.13 0.17 0.22
0.00 0.00 0.00 0.00 0.00 0.00 0.00 0.00 0.00 0.00 0.01 0.01 0.01 0.02 0.01 0.01 0.01 0.03 0.04 0.06 0.05 0.03 0.01 0.00 0.00 0.00 0.00 0.01 0.03 0.07 0.12 0.10 0.08 0.07 0.05 0.04 0.03 0.03 0.03 0.05 0.06 0.09 0.13
0.00 0.00 0.00 0.00 0.00 0.00 0.00 0.00 0.00 0.00 0.01 0.02 0.03 0.03 0.03 0.03 0.03 0.03 0.04 0.06 0.11 0.11 0.05 0.01 0.00 0.00 0.00 0.02 0.04 0.08 0.13 0.12 0.11 0.09 0.06 0.03 0.02 0.02 0.02 0.02 0.02 0.03 0.04
0.00 0.00 0.00 0.00 0.00 0.00 0.00 0.00 0.00 0.01 0.02 0.03 0.03 0.04 0.05 0.04 0.04 0.04 0.05 0.07 0.12 0.16 0.12 0.04 0.01 0.01 0.02 0.03 0.05 0.11 0.14 0.11 0.11 0.10 0.07 0.04 0.03 0.02 0.02 0.02 0.02 0.02 0.02
0.00 0.00 0.00 0.00 0.00 0.00 0.00 0.01 0.01 0.02 0.03 0.04 0.04 0.05 0.06 0.07 0.07 0.07 0.07 0.08 0.08 0.12 0.16 0.09 0.04 0.04 0.06 0.08 0.11 0.14 0.14 0.12 0.11 0.12 0.10 0.08 0.05 0.03 0.03 0.02 0.02 0.02 0.02
0.00 0.00 0.00 0.00 0.00 0.00 0.01 0.02 0.03 0.03 0.04 0.05 0.05 0.05 0.05 0.06 0.08 0.07 0.06 0.06 0.08 0.12 0.19 0.18 0.11 0.08 0.08 0.10 0.12 0.13 0.10 0.09 0.10 0.13 0.11 0.09 0.06 0.04 0.03 0.02 0.02 0.02 0.02
0.00 0.00 0.00 0.00 0.00 0.01 0.02 0.03 0.03 0.04 0.04 0.03 0.03 0.03 0.04 0.05 0.06 0.05 0.06 0.08 0.09 0.12 0.17 0.20 0.13 0.10 0.08 0.07 0.11 0.14 0.14 0.15 0.09 0.08 0.07 0.05 0.04 0.04 0.03 0.03 0.02 0.02 0.02
0.00 0.00 0.01 0.01 0.01 0.02 0.02 0.02 0.02 0.01 0.01 0.01 0.01 0.02 0.03 0.05 0.07 0.09 0.08 0.09 0.10 0.12 0.13 0.14 0.12 0.08 0.07 0.07 0.12 0.19 0.19 0.14 0.11 0.07 0.06 0.04 0.03 0.03 0.05 0.10 0.06 0.04 0.03
0.01 0.01 0.01 0.01 0.01 0.01 0.01 0.00 0.00 0.00 0.00 0.01 0.01 0.02 0.03 0.05 0.09 0.11 0.10 0.10 0.11 0.12 0.12 0.14 0.12 0.09 0.06 0.09 0.14 0.19 0.18 0.13 0.10 0.07 0.07 0.06 0.06 0.15 0.34 0.46 0.32 0.13 0.08
0.00 0.00 0.00 0.00 0.00 0.00 0.00 0.00 0.00 0.00 0.00 0.01 0.02 0.02 0.02 0.03 0.05 0.06 0.06 0.07 0.09 0.12 0.15 0.17 0.15 0.10 0.06 0.11 0.18 0.23 0.22 0.17 0.12 0.07 0.06 0.07 0.16 0.47 0.85 1.08 0.77 0.33 0.22
0.00 0.00 0.00 0.00 0.00 0.00 0.00 0.00 0.00 0.00 0.01 0.03 0.04 0.04 0.03 0.03 0.05 0.05 0.05 0.06 0.06 0.10 0.18 0.23 0.22 0.14 0.11 0.17 0.26 0.27 0.20 0.17 0.15 0.11 0.09 0.11 0.27 0.55 0.76 0.94 0.93 0.59 0.45
0.00 0.00 0.00 0.00 0.01 0.01 0.00 0.00 0.00 0.01 0.02 0.03 0.04 0.05 0.06 0.06 0.06 0.06 0.04 0.04 0.06 0.11 0.20 0.24 0.25 0.21 0.23 0.26 0.30 0.28 0.22 0.17 0.13 0.10 0.10 0.15 0.31 0.50 0.59 0.77 1.09 1.03 0.86
0.00 0.01 0.00 0.00 0.01 0.02 0.00 0.00 0.00 0.01 0.01 0.01 0.01 0.02 0.04 0.05 0.06 0.07 0.06 0.06 0.09 0.14 0.22 0.33 0.38 0.41 0.43 0.38 0.30 0.24 0.21 0.19 0.19 0.15 0.14 0.19 0.34 0.51 0.67 0.87 1.01 1.15 1.11
0.00 0.00 0.00 0.01 0.02 0.03 0.01 0.00 0.01 0.01 0.02 0.01 0.01 0.01 0.03 0.06 0.07 0.08 0.07 0.09 0.13 0.21 0.36 0.51 0.56 0.57 0.48 0.38 0.31 0.26 0.25 0.26 0.28 0.26 0.17 0.18 0.30 0.47 0.76 1.04 0.99 0.88 0.89